DW8013 Loker BE current weather conditions

sailwx.info

Wind from 061

Air temperature 23.3° C
Dewpoint 7.8° C

Last reported at 2018-Jul-19 18:53 UTC.
Time now 2018-Jul-19 19:13 UTC

Location: N 50°47' E 002°46'.
View on Google Maps.

See reports from other nearby stations

  
Tides and Currents Weather Stations Pressure Air Temp Water Temp Dewpoint Dewpoint Depression Visibility Wind Speed Wind Dir Waves Ship Positions
date/time (UTC)wind fromknots sea level pressurealtimeterstation pressurevisibilityair tempwater tempwave heightnotes
2018-Jul-19 18:53 061 23.3
2018-Jul-19 18:38 057 24.4
2018-Jul-19 18:23 061 25.0
2018-Jul-19 18:08 351 25.0
2018-Jul-19 17:53 032 25.6
2018-Jul-19 17:38 342 26.1
2018-Jul-19 17:23 041 26.7
2018-Jul-19 17:08 076 27.8
2018-Jul-19 16:53 035 28.3
2018-Jul-19 16:38 005 28.9
2018-Jul-19 16:23 005 29.4
2018-Jul-19 16:08 009 29.4
2018-Jul-19 15:53 005 29.4
2018-Jul-19 15:38 009 29.4
2018-Jul-19 15:23 005 30.0
2018-Jul-19 15:08 005 30.0
2018-Jul-19 14:53 005 30.0
2018-Jul-19 14:38 005 30.0
2018-Jul-19 14:23 009 29.4
2018-Jul-19 14:08 005 29.4
2018-Jul-19 13:53 005 29.4
2018-Jul-19 13:38 005 29.4
2018-Jul-19 13:23 009 29.4
2018-Jul-19 13:08 005 29.4
2018-Jul-19 12:53 005 28.9
2018-Jul-19 12:38 005 28.3
2018-Jul-19 12:23 005 28.9
2018-Jul-19 12:08 005 28.3
2018-Jul-19 11:53 298 27.8
2018-Jul-19 11:38 039 27.8
2018-Jul-19 11:23 005 27.2
2018-Jul-19 11:08 069 27.2
2018-Jul-19 10:53 350 27.2
2018-Jul-19 10:38 058 26.7
2018-Jul-19 10:23 036 26.1
2018-Jul-19 10:08 324 25.6
2018-Jul-19 09:53 321 25.6
2018-Jul-19 09:38 309 25.0
2018-Jul-19 09:23 019 24.4
2018-Jul-19 09:07 044 23.9
2018-Jul-19 08:52 350 22.8
2018-Jul-19 08:37 005 22.2
2018-Jul-19 08:22 051 21.1
2018-Jul-19 08:07 053 20.6
2018-Jul-19 07:52 052 19.4
2018-Jul-19 07:37 041 18.9
2018-Jul-19 07:22 055 17.8
2018-Jul-19 07:07 057 17.2
2018-Jul-19 06:52 057 17.2
2018-Jul-19 06:37 055 16.7
2018-Jul-19 06:22 056 16.1
2018-Jul-19 06:07 057 16.1
2018-Jul-19 05:52 055 15.6
2018-Jul-19 05:37 033 15.6
2018-Jul-19 05:22 15.6
2018-Jul-19 05:07 15.6
2018-Jul-19 04:52 15.0
2018-Jul-19 04:37 15.0
2018-Jul-19 04:22 15.0
2018-Jul-19 04:07 15.0
2018-Jul-19 03:52 15.0
2018-Jul-19 03:37 15.0
2018-Jul-19 03:22 15.0
2018-Jul-19 03:07 15.6
2018-Jul-19 02:52 15.6
2018-Jul-19 02:37 15.6
2018-Jul-19 02:22 15.6
2018-Jul-19 02:07 15.6
2018-Jul-19 01:52 15.6
2018-Jul-19 01:37 15.6
2018-Jul-19 01:21 15.6
2018-Jul-19 01:07 16.1
2018-Jul-19 00:51 16.1
2018-Jul-19 00:36 16.1
2018-Jul-19 00:21 16.1
2018-Jul-19 00:06 350 16.1
2018-Jul-18 23:51 350 16.7
2018-Jul-18 23:36 350 16.7
2018-Jul-18 23:21 350 16.7
2018-Jul-18 23:06 350 16.7
2018-Jul-18 22:51 350 16.7
2018-Jul-18 22:36 350 17.2
2018-Jul-18 22:21 350 17.2
2018-Jul-18 22:06 350 17.2
2018-Jul-18 21:51 350 17.8
2018-Jul-18 21:36 350 17.8
2018-Jul-18 21:21 350 18.3
2018-Jul-18 21:06 350 18.9
2018-Jul-18 20:51 349 18.9
2018-Jul-18 20:36 349 19.4
2018-Jul-18 20:21 349 20.0
2018-Jul-18 20:06 348 20.6
2018-Jul-18 19:51 348 21.1
2018-Jul-18 19:36 347 21.7
2018-Jul-18 19:21 347 22.2
2018-Jul-18 19:06 346 22.8
2018-Jul-18 18:51 005 23.9
2018-Jul-18 18:36 344 24.4
2018-Jul-18 18:21 351 25.0
2018-Jul-18 18:06 331 25.0
2018-Jul-18 17:51 323 25.6
2018-Jul-18 17:36 012 26.1
2018-Jul-18 17:21 300 26.7
2018-Jul-18 17:06 034 26.7
2018-Jul-18 16:51 042 27.2
2018-Jul-18 16:36 321 26.7
2018-Jul-18 16:21 351 26.7
2018-Jul-18 16:06 26.1
2018-Jul-18 15:51 338 26.7
2018-Jul-18 15:36 300 26.1
2018-Jul-18 15:21 009 27.2
2018-Jul-18 15:06 022 26.1
2018-Jul-18 14:51 351 26.7
2018-Jul-18 14:36 009 27.2
2018-Jul-18 14:21 009 26.7
2018-Jul-18 14:06 009 26.7
2018-Jul-18 13:51 009 26.7
2018-Jul-18 13:36 009 26.1
2018-Jul-18 13:21 009 27.2
2018-Jul-18 13:06 005 26.1
2018-Jul-18 12:51 005 25.6
2018-Jul-18 12:36 009 26.1
2018-Jul-18 12:21 009 27.2
2018-Jul-18 12:06 005 26.1
2018-Jul-18 11:51 260 24.4
2018-Jul-18 11:36 294 24.4
2018-Jul-18 11:21 304 23.9
2018-Jul-18 11:06 286 24.4
2018-Jul-18 10:51 265 23.9
2018-Jul-18 10:36 309 24.4
2018-Jul-18 10:21 276 23.9
2018-Jul-18 10:06 217 22.8
2018-Jul-18 09:50 254 22.8
2018-Jul-18 09:35 333 22.8
2018-Jul-18 09:20 279 22.2
2018-Jul-18 09:05 272 21.7
2018-Jul-18 08:50 231 20.6
2018-Jul-18 08:35 252 20.0
2018-Jul-18 08:20 245 18.9
2018-Jul-18 08:05 263 18.3
2018-Jul-18 07:50 213 17.2
2018-Jul-18 07:35 246 16.7
2018-Jul-18 07:20 240 15.6
2018-Jul-18 07:05 245 15.0
2018-Jul-18 06:50 237 14.4
2018-Jul-18 06:35 255 14.4
2018-Jul-18 06:20 254 13.9
2018-Jul-18 06:05 254 13.3
2018-Jul-18 05:50 254 13.3
2018-Jul-18 05:35 254 12.8
2018-Jul-18 05:20 253 12.8
2018-Jul-18 05:05 253 12.8
2018-Jul-18 04:50 253 12.2
2018-Jul-18 04:35 253 12.2
2018-Jul-18 04:20 254 12.2
2018-Jul-18 04:05 254 12.2
2018-Jul-18 03:49 254 12.2
2018-Jul-18 03:34 254 12.2
2018-Jul-18 03:19 253 12.2
2018-Jul-18 03:04 253 12.2
2018-Jul-18 02:49 253 12.8
2018-Jul-18 02:34 253 12.8
2018-Jul-18 02:19 254 12.8
2018-Jul-18 02:04 253 13.3
2018-Jul-18 01:49 253 13.3
2018-Jul-18 01:34 253 13.3
2018-Jul-18 01:19 253 13.3
2018-Jul-18 01:04 253 13.3
2018-Jul-18 00:49 254 13.9
2018-Jul-18 00:34 253 13.9
2018-Jul-18 00:19 254 13.9
2018-Jul-18 00:04 254 14.4
2018-Jul-17 23:49 254 14.4
2018-Jul-17 23:34 254 15.0
2018-Jul-17 23:19 254 15.0
2018-Jul-17 23:04 253 15.0
2018-Jul-17 22:49 254 15.6
2018-Jul-17 22:34 254 15.6
2018-Jul-17 22:19 254 15.6
2018-Jul-17 22:04 254 16.1
2018-Jul-17 21:49 254 16.7
2018-Jul-17 21:34 254 16.7
2018-Jul-17 21:19 254 17.2
2018-Jul-17 21:04 254 17.2
2018-Jul-17 20:49 254 17.2
2018-Jul-17 20:34 254 17.8
2018-Jul-17 20:19 254 18.3
2018-Jul-17 20:04 254 18.9
2018-Jul-17 19:49 253 18.9
2018-Jul-17 19:34 261 19.4
2018-Jul-17 19:19 262 20.0
2018-Jul-17 19:04 257 20.6